Верхненильдина

Россия / Ханты-Мансийский автономный округ - Югра     63°17′10″N   61°29′46″E
темп.,
°C
ветер,
м/с
пор.,
м/с
влажн.,
%
обл.,
%
осадки,
мм/ч
давл.,
гПа
погр.,
м
27 ноября, сб
сб2723:00−11вюв3895100 0.2 1004323
02:00−10юв2795100 1.2 1002387
05:00−9вюв2596100 2.8 1000265
08:00−9ссв1197100 0.8 99943
11:00−13сз119978 0.8 100113
14:00−11ссз1195100 0.0 100263
17:00−12всв1198100 0.0 100310
20:00−12с229880 0.1 100444
28 ноября, вс
вс2823:00−11з2129531 0.4 1008298
02:00−7з413795 0.0 1011540
05:00−11зюз268815 0.0 1014119
08:00−16юз0097100 0.0 10179
11:00−12всв1190100 0.0 101836
14:00−10всв2388100 0.0 1017127
17:00−10всв3895100 0.9 1016285
20:00−9всв3695100 1.4 1014272
29 ноября, пн
пн2923:00−9с2495100 2.7 1011196
02:00−11ссз2495100 1.3 1011177
05:00−12ссз2496100 1.4 1010175
08:00−13ссз1395100 0.1 1009127
11:00−12с129599 0.9 1008137
14:00−12с129594 0.3 1007130
17:00−14с239796 0.5 100895
20:00−14с139781 0.3 101092
30 ноября, вт
вт3023:00−17с1297100 0.3 101154
02:00−17ссв119884 0.0 101229
05:00−21ссв1110013 0.0 101414
08:00−22с1199100 0.0 101525
11:00−19ссв2496100 0.0 101778
14:00−15всв2889100 0.0 1015255
17:00−13всв41394100 1.3 1012413
20:00−13всв51694100 3.2 1007548
1 декабря, ср
ср123:00−12св51394100 8.1 1002616
02:00−12св51194100 3.1 999511
05:00−12ссв4895100 6.4 997433
08:00−12ссз3696100 1.8 997341
11:00−15ссз2695100 2.1 997232
14:00−14с1395100 0.2 998185
17:00−15с2397100 0.3 99992
20:00−14ссв249699 0.1 1000168